Miscellaneous Local Product
Issued by NWS Hastings, NE

Home | Current Version | Previous Version | Text Only | Print | Product List | Glossary Off
Versions: 1 2 3 4 5 6 7 8 9 10 11 12 13 14 15 16 17 18 19 20 21 22 23 24 25 26 27 28 29 30 31 32 33 34 35 36 37 38 39 40 41 42 43 44 45 46 47 48 49 50

000
AXUS43 KGID 310202
MISGRI

GID CWA HOURLY WEATHER ROUNDUP
NATIONAL WEATHER SERVICE HASTINGS NE
900 PM CDT THU JUL 30 2015

NOTE: "FAIR" INDICATES FEW OR NO CLOUDS BELOW 12,000 FEET WITH NO
SIGNIFICANT WEATHER AND/OR OBSTRUCTIONS TO VISIBILITY.

...SOUTH CENTRAL NEBRASKA...

CITY           SKY/WX    TMP DP  RH WIND       PRES   REMARKS
GRAND ISLAND   PTCLDY    78  67  68 S5        30.14S
HASTINGS       PTCLDY    80  66  62 SE9       30.14F
KEARNEY        PTCLDY    79  66  65 SE7       30.15S
ORD            PTCLDY    77  66  68 S6        30.11S
YORK           CLEAR     77  66  69 CALM      30.14S
AURORA         PTCLDY    75  69  80 SE3       30.13F
LEXINGTON      MOCLDY    78  67  69 SE5       30.16S
HOLDREGE       MOCLDY    80  67  64 SE3       30.15F
HEBRON         PTCLDY    77  65  65 SE3       30.14S

...NEBRASKA PANHANDLE...

CITY           SKY/WX    TMP DP  RH WIND       PRES   REMARKS
CHADRON        CLEAR     80  51  36 E5        30.19R
ALLIANCE       CLEAR     76  53  44 NE7       30.22R
SCOTTSBLUFF    CLEAR     77  52  41 NE9       30.21S
SIDNEY         CLEAR     75  61  61 SE7       30.26R

...WESTERN AND NORTH CENTRAL NEBRASKA...

CITY           SKY/WX    TMP DP  RH WIND       PRES   REMARKS
VALENTINE      CLEAR     82  49  31 N6        30.17R
AINSWORTH      CLEAR     76  60  57 E6        30.17R
ONEILL         MOCLDY    83  64  54 CALM      30.13R
BROKEN BOW     MOCLDY    78  68  71 CALM      30.15S
IMPERIAL       CLOUDY    81  58  45 E7        30.19R
NORTH PLATTE   CLOUDY    74  64  71 E5        30.17R
MCCOOK         MOCLDY    80  63  55 SE7       30.16R

...EASTERN NEBRASKA...

CITY           SKY/WX    TMP DP  RH WIND       PRES   REMARKS
NORFOLK        PTCLDY    77  65  66 E3        30.11S
SO SIOUX CITY  CLEAR     80  71  74 CALM      30.09R
TEKAMAH        MOCLDY    75  72  90 S3        30.09S
COLUMBUS       PTCLDY    77  64  65 S5        30.11S
ALBION         PTCLDY    76  66  71 CALM      30.11F
OMAHA EPPLEY   PTCLDY    80  71  74 CALM      30.10S
OFFUTT AFB     CLEAR     81  65  58 SW3       30.10S
MILLARD        CLEAR     84  65  53 CALM      30.10S
LINCOLN        CLEAR     79  59  50 S7        30.12S
NEBRASKA CITY  CLEAR     76  63  63 S3        30.13S
BEATRICE       CLEAR     78  60  54 S5        30.13S
FALLS CITY     CLEAR     79  67  66 S3        30.12S

...NORTHERN KANSAS...

CITY           SKY/WX    TMP DP  RH WIND       PRES   REMARKS
GOODLAND       PTCLDY    73  60  63 SW5       30.26R
HILL CITY      CLEAR     80  66  62 S7        30.16R
NORTON         CLEAR     75  59  57 SE3       30.15S
PHILLIPSBURG   CLEAR     82  66  57 CALM      30.14S
SMITH CENTER   CLEAR     75  66  73 SE8       30.14S
HAYS           CLEAR     79  64  61 SE9       30.16R
RUSSELL        CLEAR     77  68  73 SE8       30.14R
CONCORDIA      CLEAR     74  68  81 SE5       30.14R
SALINA         CLEAR     78  68  71 S8        30.14R
TOPEKA         PTCLDY    77  69  76 CALM      30.13S



USA.gov is the U.S. government's official web portal to all federal, state and local government web resources and services.